www.pogodaiklimat.ru

Погода и климат >> Архив погоды >> Филиппины >> Бутуан


ПОГОДА в Бутуане

  • Прогноз погоды в Бутуане
  • Монитор погоды в Бутуане

АРХИВ ПОГОДЫ в Бутуане

Время (UTC), дата Ветер
(напр.,м/с)
 
Видим.   Явления Облачность Т
(С)
Тd
(С)
f
(%)
Тe
(С)
Тes
(С)
Комфортность P
(гПа)
Po
(гПа)
Тmin
(С)
Tmax
(С)
R
(мм)
R24
(мм)
S
(см)
15 14.07 ЮВ 2 8000 м осадки на расстоянии 10/5 450 м
[Cb cap Ac As]
+26.0 +23.6 87 +35 +35 очень
душно
1010.1 1004.8
18 14.07 штиль 0 9000 м осадки на расстоянии {ливн. осадки} 10/4 450 м
[Cb cap Ac As]
+24.6 +23.0 91 +33 +33 очень
душно
1006.8 1001.5 0.1
21 14.07 штиль 0 10 км осадки на расстоянии 8/3 450 м
[Cb cap Ac As]
+24.4 +23.3 94 +33 +33 очень
душно
1006.6 1001.3
00 15.07 Ю 1 12 км осадки на расстоянии 8/3 450 м
[Cb cap Ac trans]
+26.0 +24.1 89 +36 +40 очень
душно
1008.5 1003.2 +23.8 0.1
03 15.07 СЗ 1 12 км 6/4 450 м
[Sc Ac trans Cs]
+31.1 +24.9 70 +45 +57 опасность
перегрева
1007.9 1002.7
06 15.07 С 2 12 км осадки на расстоянии 9/3 450 м
[Cb cap Ac trans Cs]
+31.8 +21.6 55 +40 +46 очень
душно
1005.8 1000.6
09 15.07 СЗ 3 11 км осадки на расстоянии 9/4 450 м
[Cb cap Ac As]
+30.2 +23.5 67 +41 +41 опасность
перегрева
1005.7 1000.5
12 15.07 ЮВ 2 8000 м осадки на расстоянии 9/4 450 м
[Cb cap Ac As]
+28.0 +24.0 79 +39 +39 очень
душно
1007.9 1002.7 +33.0
15 15.07 ЮВ 1 6000 м слаб. ливневой дождь 10/5 450 м
[Cb cap Ac As]
+26.7 +24.8 89 +38 +38 очень
душно
1008.3 1003.0 1
18 15.07 Ю 2 8000 м осадки на расстоянии {ливн. осадки} 10/4 450 м
[Cb cap Ac As]
+25.7 +24.1 91 +36 +36 очень
душно
1006.4 1001.1 1
21 15.07 Ю 2 10 км осадки на расстоянии 9/4 450 м
[Cb cap Ac As]
+25.3 +23.0 87 +34 +34 очень
душно
1004.6 999.3
00 16.07 ЮВ 3 10 км осадки на расстоянии 10/5 450 м
[Cb cap Ac As]
+26.2 +23.5 85 +36 +37 очень
душно
1008.2 1002.9 +24.2 1
03 16.07 ЮВ 5 11 км осадки на расстоянии 9/4 450 м
[Cb cap Ac As]
+30.4 +25.7 76 +45 +48 опасность
перегрева
1006.5 1001.3
06 16.07 Ю 5 11 км осадки на расстоянии 10/5 450 м
[Cb cap Ac As]
+31.4 +24.5 67 +44 +45 опасность
перегрева
1005.0 999.8
09 16.07 В 1 10 км осадки на расстоянии 10/5 450 м
[Cb cap Ac As]
+30.0 +25.7 78 +45 +45 опасность
перегрева
1005.1 999.9
12 16.07 штиль 0 11 км осадки на расстоянии 8/4 450 м
[Cb cap Ac As Cs]
+28.2 +24.5 80 +40 +40 очень
душно
1007.3 1002.1 +32.0
15 16.07 ЮВ 2 11 км осадки на расстоянии 9/4 450 м
[Cb cap Ac As Cs]
+27.0 +24.3 85 +38 +38 очень
душно
1007.9 1002.6
18 16.07 ЮВ 4 10 км 8/1 540 м
[Cu med, cong Ac trans Cs]
+26.3 +23.3 84 +36 +36 очень
душно
1006.6 1001.3
21 16.07 В 4 10 км осадки на расстоянии 10/3 450 м
[Cb cap Ac As]
+25.4 +22.1 82 +33 +33 очень
душно
1006.9 1001.6
00 17.07 ЮЗ 2 11 км осадки на расстоянии 10/4 450 м
[Cb cap Ac As]
+26.0 +21.9 78 +33 +35 очень
душно
1007.7 1002.4 +24.5
03 17.07 ЮВ 5 11 км осадки на расстоянии 10/4 450 м
[Cb cap Ac As]
+28.0 +23.3 76 +38 +40 очень
душно
1007.6 1002.4
06 17.07 ЮВ 5 11 км осадки на расстоянии 9/3 450 м
[Cb cap Ac As Cs]
+29.3 +24.3 75 +41 +44 опасность
перегрева
1006.5 1001.3
09 17.07 Ю 1 11 км осадки на расстоянии 9/4 450 м
[Cb cap Ac As]
+30.0 +26.1 80 +45 +46 опасность
перегрева
1006.4 1001.2
12 17.07 ЮВ 2 12 км осадки на расстоянии 6/1 450 м
[Cb cap Ac trans Cs]
+27.7 +24.6 83 +39 +39 очень
душно
1008.4 1003.1 +30.2
15 17.07 ЮВ 2 11 км осадки на расстоянии 6/3 450 м
[Cb cap Ac trans Cs]
+26.5 +23.7 85 +36 +36 очень
душно
1010.0 1004.7
18 17.07 ЮВ 2 10 км 3/1 540 м
[Cu med, cong Ac trans Ci fib]
+26.0 +23.2 85 +35 +35 очень
душно
1008.7 1003.4
21 17.07 ЮВ 3 10 км 3/1 540 м
[Cu med, cong Ac trans Ci fib]
+25.5 +23.2 87 +34 +34 очень
душно
1009.4 1004.1
00 18.07 Ю 3 12 км 3/1 540 м
[Cu med, cong Ac trans Ci fib]
+27.8 +23.9 79 +38 +43 очень
душно
1010.2 1004.9 +24.6
03 18.07 ЮВ 6 12 км 5/3 540 м
[Cu med, cong Ac trans Ci fib]
+31.6 +24.8 67 +45 +50 опасность
перегрева
1009.4 1004.2
06 18.07 В 6 12 км 5/3 540 м
[Cu med, cong Ac trans Cs]
+33.7 +25.2 61 +48 +51 опасность
перегрева
1007.5 1002.4
09 18.07 ЮВ 2 12 км осадки на расстоянии 5/3 450 м
[Cb cap Ac trans Ci fib]
+33.7 +25.3 62 +48 +49 опасность
перегрева
1007.0 1001.9
12 18.07 В 1 8000 м осадки на расстоянии 6/3 450 м
[Sc Ac trans Ci fib]
+29.6 +25.4 78 +43 +43 опасность
перегрева
1009.6 1004.4 +34.0
15 18.07 ЮВ 1 8000 м 4/1 540 м
[Cu med, cong Ac trans Ci fib]
+27.4 +25.2 88 +40 +40 очень
душно
1010.3 1005.0
18 18.07 Ю 1 8000 м 4/1 540 м
[Cu med, cong Ac trans Cs]
+26.2 +23.8 87 +36 +36 очень
душно
1009.1 1003.8
21 18.07 Ю 1 10 км 4/1 540 м
[Cu med, cong Cs]
+25.2 +23.0 88 +34 +34 очень
душно
1009.3 1004.0
00 19.07 ЮВ 3 12 км осадки на расстоянии 4/1 450 м
[Sc Ci fib]
+29.4 +24.2 74 +41 +47 опасность
перегрева
1010.3 1005.1 +24.5
03 19.07 В 2 12 км осадки на расстоянии 5/3 450 м
[Cb cap Ac trans Ci fib]
+32.2 +24.5 64 +45 +57 опасность
перегрева
1010.0 1004.8
06 19.07 С 4 12 км осадки на расстоянии 5/3 450 м
[Cb cap Ac trans Ci fib]
+33.5 +25.4 63 +48 +54 опасность
перегрева
1007.9 1002.7
09 19.07 С 2 12 км осадки на расстоянии 4/3 450 м
[Cb cap Ac trans Ci fib]
+32.0 +24.9 66 +45 +46 опасность
перегрева
1008.4 1003.2
12 19.07 Ю 1 8000 м осадки на расстоянии 4/3 450 м
[Sc Ac As Cs]
+28.8 +25.4 82 +42 +42 опасность
перегрева
1009.8 1004.6 +33.7
15 19.07 Ю 2 8000 м 4/3 540 м
[Cu med, cong Ac trans Ci fib]
+27.8 +24.4 82 +39 +39 очень
душно
1010.9 1005.6
18 19.07 ЮВ 1 8000 м 4/3 540 м
[Cu med, cong Ac trans Ci fib]
+27.2 +24.5 85 +38 +38 очень
душно
1009.9 1004.6
21 19.07 Ю 1 10 км 3/1 540 м
[Cu med, cong Cs]
+26.2 +24.3 89 +36 +36 очень
душно
1010.0 1004.7
00 20.07 ЮВ 4 12 км 6/1 540 м
[Cu med, cong Ac trans Ci fib]
+29.7 +25.4 78 +44 +47 опасность
перегрева
1011.4 1006.2 +25.3
03 20.07 В 2 12 км осадки на расстоянии 5/3 450 м
[Cb cap Ac trans Ci fib]
+33.4 +26.4 67 +50 +63 опасность
перегрева
1010.8 1005.6
06 20.07 С 4 12 км осадки на расстоянии 8/4 450 м
[Cb cap Ac trans Ci fib]
+34.3 +25.0 58 +48 +52 опасность
перегрева
1008.7 1003.6
09 20.07 С 2 12 км осадки на расстоянии 6/3 450 м
[Cb cap Ac As Ci fib]
+31.8 +24.5 65 +44 +45 опасность
перегрева
1008.8 1003.6
12 20.07 В 1 8000 м слаб. ливневой дождь 10/4 450 м
[Cb cap Ac As]
+27.8 +25.2 86 +40 +40 очень
душно
1011.0 1005.7 +34.7 3
15 20.07 Ю 1 8000 м {ливн. осадки} 5/3 540 м
[Cu med, cong Ac trans Ci fib]
+27.4 +25.3 88 +40 +40 очень
душно
1010.6 1005.3 0.2
18 20.07 ЮВ 1 8000 м осадки на расстоянии {ливн. осадки} 9/4 450 м
[Cb cap Ac As]
+26.4 +24.8 91 +38 +38 очень
душно
1009.4 1004.1 0.2
21 20.07 ЮВ 1 8000 м осадки на расстоянии 9/4 450 м
[Cb cap Ac As]
+25.6 +24.0 91 +35 +35 очень
душно
1009.3 1004.0
00 21.07 В 1 12 км 9/3 540 м
[Cu med, cong Ac trans Cs]
+27.8 +24.6 83 +39 +43 очень
душно
1010.3 1005.0 +25.2 3
03 21.07 СВ 1 12 км 8/3 540 м
[Cu med, cong Ac trans Ci fib]
+31.6 +24.8 67 +45 +56 опасность
перегрева
1009.3 1004.1
06 21.07 СЗ 3 12 км осадки на расстоянии 4/4 450 м
[Cb cap Cs]
+33.7 +24.4 58 +46 +53 опасность
перегрева
1007.1 1002.0
09 21.07 С 4 11 км осадки на расстоянии 9/4 450 м
[Cb cap Ac As]
+31.8 +25.8 71 +47 +47 опасность
перегрева
1007.0 1001.8

 

Местоположение метеостанции Бутуан (Филиппины): широта 8.93 долгота 125.51 высота над уровнем моря 46 м.

В архиве по умолчанию представлена погода в Бутуане за последнюю неделю. Архивные данные за месяц целиком и за предыдущие месяцы, начиная с января 2011 года, Вы можете получить, выбрав интересующий диапазон дат из раскрывающегося списка и нажав кнопку "Ввод!".


*Определитесь, кто Вы:
робот инопланетянин человек

Внимание! Время в таблицах - всемирное. Для получения местного времени необходимо прибавить поправку, которая равна 8 ч.

Смотрите также архив погоды в соседних городах и на ближайших метеорологических станциях:

Погода в Серигао Сити (Филиппины) (97 км)
Погода в Малайбалае (Филиппины) (99 км)
Погода в Хинатуане (Филиппины) (110 км)
Погода в Кагаян-де-Оро (Филиппины) (146 км)
Погода в Маасине (Филиппины) (153 км)
Погода в Тагбиларане (Филиппины) (197 км)
Погода в Давао (Филиппины) (202 км)
Погода в Мактане (Филиппины) (228 км)
Погода в Гуиуане (Филиппины) (235 км)
Погода в Дипологе (Филиппины) (240 км)

Пояснения к столбцам:

Ветер - указаны скорость ветра в м/с - средняя за 10 мин, порывы в срок и между сроками (в фигурных скобках) и направление, откуда дует ветер: С - северный, СВ - северо-восточный, В - восточный, ЮВ - юго-восточный, Ю - южный, ЮЗ - юго-западный, З - западный, СЗ - северо-западный.
Видимость - горизонтальная дальность видимости в метрах или километрах. При видимости от 1 до 10 км при отсутствии осадков обычно наблюдается дымка, при ухудшении видимости до 1 км и менее - туман. В сухую погоду видимость может ухудшаться дымом, пылью или мглою.
Явления - указаны атмосферные явления, наблюдавшиеся в срок или в последний час перед сроком; фигурными скобками обозначены явления, наблюдавшиеся между сроками (за 1-3 часа до срока); квадратными скобками обозначены град или гололедные отложения с указанием их диаметра в мм.
Облачность - указаны через наклонную черту общая и нижняя облачность в баллах и высота нижней границы облаков в метрах; квадратными скобками обозначены формы облаков: Ci - перистые, Cs - перисто-слоистые, Cc - перисто-кучевые, Ac - высококучевые, As - высокослоистые, Sc - слоисто-кучевые, Ns - слоисто-дождевые, Cu - кучевые, Cb - кучево-дождевые. Подробнее классификацию облаков см. в Атласе облаков (PDF).
T - Температура воздуха - температура, измеренная на высоте 2 м над землей.
Td - Температура точки росы - температура, при понижении до которой содержащийся в воздухе водяной пар достигнет насыщения.
f - Относительная влажность воздуха - влажноcть воздуха, измеренная на высоте 2 м над землей.
Te - Эффективная температура - температура, которую ощущает одетый по сезону человек в тени. Характеристика душности погоды. При расчете учитывается влияние влажности воздуха и скорости ветра на теплоощущения человека.
Tes - Эффективная температура на солнце - температура, которую ощущает человек, с поправкой на солнечный нагрев. Характеристика знойности погоды. Зависит от высоты солнца над горизонтом, облачности и скорости ветра. Ночью, в пасмурную погоду, а также при ветре 12 м/с и более поправка равна нулю.
P - Атмосферное давление - приведенное к уровню моря атмосферное давление.
Po - Атмосферное давление - измеренное на уровне метеостанции атмосферное давление.
Tmin - Минимальная температура - минимум температуры воздуха на высоте 2 м над землей.
Tmax - Максимальная температура - максимум температуры воздуха на высоте 2 м над землей.
R - Количество осадков - Количество выпавших осадков за период времени, мм. При наведении курсора мыши на число - период времени, за который выпало указанное количество осадков.
R24 - Количество осадков - Количество выпавших осадков за 24 часа, мм.
S - Снежный покров - Высота снежного покрова, см. При наведении курсора мыши на число - состояние снежного покрова и степень покрытия местности в баллах.